Temp
14 14 14 15 15 14 14 14 14 14 14 14 15 15 15 14 14 13 14 14 13 14 14 14 14 14 14 14 13 14 13 13 13
14 14 14 14 14 14 14 14 14 14 14 14 14 14 14 14 13 13 14 14 13 13 13 14 13 14 14 13 13 12 12 12 12
14 14 14 14 14 14 14 14 14 14 14 14 14 14 14 13 13 13 13 13 14 13 13 13 13 13 13 13 13 12 11 11 11
13 13 13 14 14 14 14 14 14 13 14 14 13 13 14 13 13 13 13 13 14 13 13 13 13 13 13 12 11 11 11 11 10
13 13 13 13 14 14 14 13 14 14 14 13 13 13 13 14 13 12 12 12 13 11 12 12 13 13 12 12 12 11 10 10 9
11 12 12 13 13 13 13 13 13 13 13 13 12 12 13 13 13 13 12 13 12 12 12 12 12 11 12 12 12 11 11 10 9
11 11 12 12 12 12 13 13 13 12 12 13 13 12 13 12 13 13 13 13 13 12 12 12 12 12 11 11 11 11 11 10 10
12 12 11 11 12 12 12 13 13 12 12 12 13 13 13 12 13 12 12 12 13 12 12 12 12 12 11 12 11 11 11 10 10
11 11 12 11 11 11 11 12 12 12 12 13 12 12 12 12 12 12 11 12 12 12 12 12 12 11 11 11 11 11 11 10 10
10 10 11 11 11 10 11 12 12 11 12 12 11 11 11 12 11 11 11 11 12 12 12 12 12 11 11 10 9 9 10 10 10
10 10 9 9 9 10 9 10 11 11 11 11 11 11 10 11 11 11 12 12 12 12 12 12 11 11 10 10 10 9 9 10 9
9 9 8 7 9 8 9 8 10 10 10 10 11 10 10 10 11 11 11 11 12 11 12 12 11 11 11 10 9 9 9 9 9
8 8 8 8 8 8 8 9 9 10 9 10 10 11 11 9 12 11 11 11 11 11 11 11 11 11 11 11 10 9 8 9 9
7 7 8 8 8 6 7 7 8 9 9 9 9 10 10 10 10 10 10 10 11 11 11 11 11 11 10 10 10 9 8 8 7
6 6 7 7 7 6 7 7 8 7 8 8 9 9 9 10 9 9 10 10 11 11 11 11 10 11 11 10 10 9 8 8 7
5 5 6 6 6 7 7 7 7 7 8 8 8 8 8 9 9 9 10 10 11 10 11 11 10 10 11 10 10 9 9 9 8
5 5 5 5 6 6 6 5 5 6 7 7 8 8 8 9 9 10 10 11 10 11 11 10 10 10 10 11 10 10 9 9 7
4 4 4 4 5 5 5 5 4 4 6 7 7 8 9 9 10 10 10 11 11 10 10 11 10 10 10 11 10 10 9 8 7
2 3 4 4 4 4 4 5 5 3 4 6 7 7 7 8 8 9 9 9 9 10 10 10 11 10 10 10 10 10 9 9 9
2 1 2 3 3 3 3 2 5 4 3 5 6 7 7 7 7 7 8 8 9 9 9 10 11 11 10 10 10 10 9 9 9
Height
1527 1527 1528 1527 1526 1526 1527 1527 1527 1527 1528 1529 1529 1530 1531 1532 1532 1533 1533 1533 1534 1535 1536 1537 1538 1539 1540 1542 1543 1544 1544 1545 1546
1527 1527 1527 1526 1525 1525 1526 1526 1526 1526 1527 1528 1528 1529 1531 1532 1533 1534 1533 1533 1534 1534 1536 1537 1538 1538 1539 1540 1542 1543 1544 1544 1545
1525 1524 1524 1524 1524 1525 1525 1523 1524 1524 1525 1526 1527 1529 1530 1532 1534 1535 1535 1533 1534 1535 1535 1536 1537 1538 1538 1539 1540 1541 1543 1544 1544
1523 1524 1523 1523 1524 1523 1522 1522 1522 1523 1523 1525 1526 1529 1529 1531 1533 1534 1534 1533 1533 1533 1533 1534 1535 1536 1537 1538 1539 1540 1542 1543 1544
1520 1521 1520 1519 1520 1520 1520 1521 1521 1521 1522 1522 1524 1526 1528 1529 1532 1532 1533 1532 1531 1532 1532 1533 1534 1534 1535 1537 1538 1540 1542 1543 1543
1515 1516 1516 1515 1516 1515 1517 1517 1518 1519 1520 1520 1521 1524 1525 1528 1531 1531 1530 1531 1530 1531 1531 1532 1532 1533 1534 1536 1538 1539 1540 1541 1541
1513 1511 1511 1511 1512 1512 1513 1514 1515 1516 1517 1517 1519 1518 1522 1524 1528 1530 1529 1529 1529 1529 1529 1530 1531 1532 1533 1535 1536 1537 1537 1538 1540
1510 1508 1506 1504 1504 1505 1508 1509 1509 1511 1512 1513 1515 1517 1518 1519 1522 1525 1526 1526 1526 1526 1527 1529 1530 1531 1532 1532 1534 1535 1535 1538 1540
1509 1506 1504 1503 1503 1503 1503 1503 1505 1505 1506 1508 1510 1512 1514 1515 1515 1518 1523 1523 1524 1524 1525 1527 1528 1529 1530 1531 1532 1533 1535 1537 1539
1508 1506 1504 1502 1501 1500 1499 1500 1501 1500 1503 1504 1505 1507 1509 1512 1515 1515 1515 1519 1521 1522 1523 1526 1526 1528 1529 1530 1530 1531 1533 1535 1537
1508 1506 1504 1502 1499 1498 1497 1497 1496 1497 1499 1499 1501 1501 1506 1509 1512 1513 1513 1515 1519 1519 1520 1522 1524 1526 1526 1528 1529 1530 1531 1533 1534
1508 1505 1503 1501 1498 1498 1497 1497 1496 1495 1494 1494 1496 1495 1501 1506 1508 1509 1511 1512 1513 1516 1518 1519 1520 1522 1524 1525 1526 1528 1529 1531 1532
1507 1504 1502 1499 1498 1496 1496 1496 1495 1492 1493 1494 1494 1496 1496 1495 1502 1505 1506 1508 1509 1512 1514 1516 1518 1519 1520 1522 1524 1526 1527 1527 1529
1506 1503 1500 1497 1495 1494 1492 1492 1492 1491 1492 1491 1492 1493 1494 1495 1495 1498 1499 1501 1505 1508 1509 1513 1514 1515 1516 1518 1520 1522 1524 1525 1527
1503 1501 1498 1496 1493 1491 1488 1488 1489 1488 1489 1488 1488 1488 1490 1490 1491 1492 1495 1497 1500 1502 1504 1507 1510 1512 1513 1514 1514 1518 1521 1521 1525
1499 1498 1495 1493 1491 1488 1486 1485 1484 1484 1485 1485 1485 1485 1485 1485 1486 1487 1489 1491 1494 1497 1499 1502 1505 1508 1509 1511 1513 1514 1516 1517 1521
1498 1494 1491 1490 1488 1485 1484 1482 1480 1481 1482 1482 1481 1481 1480 1479 1480 1482 1483 1486 1488 1489 1494 1497 1499 1502 1505 1506 1510 1511 1513 1515 1517
1494 1492 1488 1486 1484 1482 1479 1479 1478 1477 1477 1479 1480 1479 1476 1476 1475 1476 1477 1479 1481 1483 1488 1491 1493 1495 1499 1501 1504 1507 1509 1512 1513
1488 1485 1484 1482 1479 1477 1475 1473 1472 1471 1470 1472 1474 1474 1475 1473 1473 1472 1472 1474 1476 1479 1482 1484 1487 1490 1491 1493 1497 1501 1504 1506 1508
1484 1480 1477 1476 1475 1473 1471 1468 1467 1466 1466 1468 1469 1470 1469 1470 1471 1471 1471 1473 1474 1475 1477 1478 1480 1482 1485 1487 1487 1491 1495 1499 1501
Wind_Speed
11 11 10 10 9 8 8 9 9 8 8 10 9 10 9 7 5 5 8 10 11 13 13 10 8 7 6 5 5 4 6 5 4
14 13 12 12 10 10 10 10 11 11 10 10 11 11 10 8 4 4 5 8 12 13 10 8 6 4 3 3 4 5 6 8 8
15 16 15 13 12 13 12 11 10 12 12 11 12 11 12 10 7 6 4 7 10 9 9 7 6 5 6 7 8 6 7 8 10
17 18 17 15 15 15 14 12 11 13 14 13 14 13 12 9 7 6 6 12 12 12 12 11 8 8 7 7 4 6 8 9 9
20 20 18 18 17 16 15 14 14 14 15 15 16 15 15 12 9 7 8 14 10 9 11 10 9 7 6 5 4 6 6 10 8
23 21 20 16 18 18 18 17 15 17 18 17 16 17 17 12 11 9 14 13 11 13 13 11 11 11 10 7 8 7 10 14 14
18 20 21 21 19 18 18 19 18 18 20 22 23 22 20 16 15 11 17 15 13 17 16 17 12 12 14 12 10 7 7 13 14
14 12 14 16 18 21 21 21 22 21 23 25 26 24 25 24 22 14 19 19 15 16 19 19 14 14 14 12 11 9 13 14 17
11 13 13 11 16 19 20 18 22 22 24 24 25 28 28 28 25 18 23 21 17 14 17 18 17 16 16 13 11 9 14 16 18
14 13 11 12 12 13 18 22 22 22 23 23 24 28 29 25 25 23 24 21 20 18 17 18 18 19 17 15 14 13 16 18 19
15 14 13 12 10 13 11 15 16 23 27 26 27 25 23 18 20 20 16 21 25 22 17 17 20 22 19 18 19 17 18 18 17
17 15 14 14 13 8 11 8 9 9 7 12 9 25 21 9 21 23 24 26 26 25 21 17 18 25 22 20 20 20 20 18 18
18 18 16 16 13 11 9 12 17 20 15 17 15 18 25 26 19 28 26 27 26 25 25 21 19 25 26 23 24 22 21 19 17
18 18 19 19 16 13 12 13 14 14 21 17 15 21 28 25 27 31 34 27 28 26 23 25 22 20 29 27 27 24 23 20 19
20 18 18 19 19 14 16 12 13 17 17 18 19 17 21 23 25 27 33 28 27 27 27 26 25 24 26 30 28 26 26 22 22
21 21 20 19 18 20 19 16 14 16 18 19 20 23 23 27 26 27 26 25 26 24 26 25 26 26 27 29 31 31 25 23 23
22 22 21 21 21 19 19 16 16 16 16 18 16 13 18 23 26 27 31 30 28 31 29 29 28 27 28 28 31 32 27 26 25
22 22 24 22 21 21 20 19 13 17 17 17 16 12 10 12 15 18 20 28 28 27 28 27 29 29 29 28 30 36 32 30 28
26 24 22 22 22 21 21 19 19 16 19 16 22 21 21 4 5 9 15 19 19 24 29 30 27 31 31 29 33 35 40 36 32
25 24 23 21 22 21 21 20 19 19 19 21 20 22 23 26 22 18 14 14 14 16 16 18 19 28 30 30 34 41 36 39 38
Wind_Direction
259 257 257 266 272 274 272 255 245 239 234 227 219 209 196 175 159 205 208 190 187 177 169 159 153 158 155 164 175 200 226 230 235
266 263 260 260 264 269 267 264 248 238 235 218 196 201 194 152 196 178 200 178 171 170 176 168 182 190 208 228 224 216 229 236 213
275 270 266 266 264 267 265 261 240 231 224 220 205 202 191 163 202 199 205 220 199 215 217 221 228 235 243 250 255 253 228 224 212
284 279 274 266 266 260 264 259 234 227 219 218 212 207 203 178 224 220 221 239 239 239 245 242 238 240 237 230 215 212 209 201 204
276 270 269 266 267 263 255 254 243 228 220 215 215 209 208 204 225 229 241 249 251 214 231 228 231 212 203 191 219 187 195 207 202
258 261 265 259 261 257 254 250 247 240 237 224 212 209 212 217 230 237 251 260 243 218 234 221 197 187 194 188 173 209 236 235 219
279 266 262 254 253 256 254 251 247 240 235 236 232 219 214 206 227 241 258 262 253 229 221 206 199 200 198 193 210 249 255 179 172
297 301 281 266 242 244 249 245 242 236 233 237 239 229 230 211 215 220 256 258 253 236 217 212 215 209 209 209 233 245 199 183 179
315 306 305 298 272 254 245 243 243 241 240 246 242 240 239 230 225 250 244 250 250 233 221 217 210 201 200 212 220 231 200 190 197
343 336 325 311 294 279 263 256 256 246 238 236 236 239 230 228 229 239 230 244 245 241 228 220 212 202 203 203 199 191 206 204 215
337 335 332 324 318 305 292 262 277 253 248 248 246 229 222 217 240 240 235 247 245 241 235 232 222 210 210 204 201 194 203 213 226
331 328 328 320 321 317 310 283 238 225 273 225 234 219 195 261 244 243 237 233 240 239 237 233 231 221 214 208 206 201 207 215 228
328 324 319 314 316 304 284 274 265 267 270 276 241 207 205 251 265 244 249 237 240 239 242 239 234 229 218 214 212 206 214 219 201
333 327 318 314 313 305 292 278 263 275 274 273 260 244 247 257 247 235 238 246 243 241 239 242 241 239 222 216 213 217 215 201 196
335 330 324 316 308 308 286 268 280 264 271 268 257 262 255 245 242 241 241 245 242 241 244 242 240 241 239 228 222 218 216 203 199
326 323 325 320 313 299 299 289 273 267 266 272 258 258 250 248 245 246 243 251 249 246 242 245 246 241 241 237 233 217 215 209 203
323 321 317 312 311 310 297 291 279 269 268 268 267 284 260 257 245 256 258 259 266 262 248 243 246 245 243 240 235 220 222 219 205
316 315 313 309 303 303 304 290 282 265 258 259 254 253 253 266 254 248 253 259 255 252 249 247 246 247 247 243 240 234 216 214 206
315 311 306 301 300 297 296 296 280 263 258 261 255 254 250 260 295 264 250 252 251 247 252 253 253 246 244 244 241 237 230 223 219
306 303 300 295 292 290 288 292 289 268 254 250 257 260 257 260 259 257 270 265 249 248 249 246 256 246 244 251 243 247 236 227 223